| time (UTC) | temp F | wind direction | speed knots | gust knots | rain 1hr in | rain 24hr in | rain mn in | humidity % | barometer mb |
| 20260509212246 | 80 | 161 | 1.7 | 3.5 | 0.00 | 0.10 | 0.00 | 34 | 1011.0 |
| 20260509211243 | 80 | 58 | 0.9 | 3.5 | 0.00 | 0.10 | 0.00 | 31 | 1011.2 |
| 20260509210725 | 80 | 11 | 0.9 | 3.5 | 0.00 | 0.10 | 0.00 | 30 | 1011.3 |
| 20260509205240 | 81 | 35 | 1.7 | 4.3 | 0.00 | 0.10 | 0.00 | 33 | 1011.3 |
| 20260509204239 | 80 | 155 | 1.7 | 4.3 | 0.00 | 0.10 | 0.00 | 31 | 1011.3 |
| 20260509203239 | 80 | 114 | 0.9 | 5.2 | 0.00 | 0.10 | 0.00 | 31 | 1011.3 |
| 20260509202731 | 80 | 112 | 0.9 | 4.3 | 0.00 | 0.10 | 0.00 | 33 | 1011.2 |
| 20260509201240 | 80 | 120 | 1.7 | 6.1 | 0.00 | 0.10 | 0.00 | 30 | 1011.4 |
| 20260509200712 | 80 | 113 | 0.9 | 5.2 | 0.00 | 0.10 | 0.00 | 36 | 1011.5 |
| 20260509195240 | 80 | 250 | 0.9 | 6.1 | 0.00 | 0.10 | 0.00 | 31 | 1011.6 |
| 20260509194240 | 80 | 22 | 0.9 | 1.7 | 0.00 | 0.10 | 0.00 | 35 | 1011.4 |
| 20260509193730 | 80 | 211 | 1.7 | 6.1 | 0.00 | 0.10 | 0.00 | 32 | 1011.6 |
| 20260509192239 | 80 | 340 | 0.9 | 5.2 | 0.00 | 0.10 | 0.00 | 36 | 1011.6 |
| 20260509191237 | 80 | 355 | 0.9 | 3.5 | 0.00 | 0.10 | 0.00 | 33 | 1011.7 |
| 20260509190716 | 80 | 324 | 1.7 | 3.5 | 0.00 | 0.10 | 0.00 | 41 | 1011.6 |
| 20260509185237 | 80 | 291 | 1.7 | 7.0 | 0.00 | 0.10 | 0.00 | 35 | 1011.8 |
| 20260509184237 | 79 | 196 | 2.6 | 5.2 | 0.00 | 0.10 | 0.00 | 35 | 1011.9 |
| 20260509183237 | 79 | 134 | 2.6 | 6.1 | 0.00 | 0.10 | 0.00 | 34 | 1011.9 |
| 20260509182238 | 78 | 176 | 3.5 | 7.8 | 0.00 | 0.10 | 0.00 | 35 | 1011.8 |
| 20260509181725 | 78 | 171 | 2.6 | 5.2 | 0.00 | 0.10 | 0.00 | 41 | 1011.9 |
| 20260509180232 | 78 | 155 | 2.6 | 4.3 | 0.00 | 0.10 | 0.00 | 42 | 1012.0 |
| 20260509175231 | 78 | 17 | 1.7 | 4.3 | 0.00 | 0.10 | 0.00 | 43 | 1012.1 |
| 20260509174232 | 78 | 156 | 0.0 | 1.7 | 0.00 | 0.10 | 0.00 | 45 | 1012.1 |
| 20260509173233 | 77 | 192 | 2.6 | 7.0 | 0.00 | 0.10 | 0.00 | 46 | 1012.2 |
| 20260509172232 | 77 | 173 | 2.6 | 7.0 | 0.00 | 0.10 | 0.00 | 52 | 1012.3 |
| 20260509171231 | 76 | 171 | 2.6 | 7.0 | 0.00 | 0.10 | 0.00 | 55 | 1012.3 |
| 20260509170232 | 75 | 144 | 0.9 | 4.3 | 0.00 | 0.10 | 0.00 | 59 | 1012.3 |
| 20260509165234 | 74 | 194 | 0.9 | 5.2 | 0.00 | 0.10 | 0.00 | 56 | 1012.3 |
| 20260509164234 | 74 | 155 | 0.0 | 2.6 | 0.00 | 0.10 | 0.00 | 61 | 1012.3 |
| 20260509163231 | 73 | 122 | 0.9 | 3.5 | 0.00 | 0.10 | 0.00 | 61 | 1012.4 |
| 20260509162231 | 72 | 180 | 3.5 | 6.1 | 0.00 | 0.10 | 0.00 | 69 | 1012.5 |
| 20260509161230 | 72 | 179 | 2.6 | 5.2 | 0.00 | 0.10 | 0.00 | 69 | 1012.6 |
| 20260509160231 | 71 | 176 | 2.6 | 6.1 | 0.00 | 0.10 | 0.00 | 75 | 1012.6 |
| 20260509155718 | 70 | 164 | 2.6 | 5.2 | 0.00 | 0.10 | 0.00 | 73 | 1012.5 |
| 20260509154231 | 69 | 172 | 2.6 | 5.2 | 0.00 | 0.10 | 0.00 | 76 | 1012.5 |
| 20260509153231 | 69 | 182 | 2.6 | 5.2 | 0.00 | 0.10 | 0.00 | 79 | 1012.4 |
| 20260509152232 | 68 | 158 | 1.7 | 4.3 | 0.00 | 0.10 | 0.00 | 79 | 1012.4 |
| 20260509151230 | 67 | 181 | 1.7 | 5.2 | 0.00 | 0.10 | 0.00 | 80 | 1012.5 |
| 20260509150247 | 67 | 180 | 2.6 | 6.1 | 0.00 | 0.10 | 0.00 | 83 | 1012.5 |
| 20260509145231 | 66 | 190 | 1.7 | 4.3 | 0.00 | 0.10 | 0.00 | 83 | 1012.4 |
| 20260509144231 | 65 | 185 | 2.6 | 5.2 | 0.00 | 0.10 | 0.00 | 87 | 1012.3 |
| 20260509143233 | 64 | 169 | 1.7 | 4.3 | 0.00 | 0.10 | 0.00 | 89 | 1012.4 |
| 20260509142232 | 63 | 201 | 0.9 | 1.7 | 0.00 | 0.10 | 0.00 | 91 | 1012.2 |
| 20260509141233 | 62 | 155 | 0.0 | 2.6 | 0.00 | 0.10 | 0.00 | 93 | 1012.2 |
| 20260509140231 | 60 | 138 | 0.9 | 3.5 | 0.00 | 0.10 | 0.00 | 94 | 1012.2 |
| 20260509135720 | 59 | 189 | 0.9 | 2.6 | 0.00 | 0.10 | 0.00 | 94 | 1012.1 |
| 20260509134231 | 58 | 192 | 0.0 | 0.9 | 0.00 | 0.10 | 0.00 | 95 | 1012.0 |
| 20260509133233 | 57 | 144 | 0.0 | 0.0 | 0.00 | 0.10 | 0.00 | 95 | 1012.0 |
| 20260509132236 | 57 | 144 | 0.0 | 0.0 | 0.00 | 0.10 | 0.00 | 95 | 1011.9 |
| 20260509131230 | 56 | 155 | 0.0 | 0.0 | 0.00 | 0.10 | 0.00 | 95 | 1011.7 |
| 20260509130727 | 55 | 155 | 0.0 | 0.0 | 0.00 | 0.10 | 0.00 | 95 | 1011.7 |
| 20260509125722 | 55 | 178 | 0.0 | 0.0 | 0.00 | 0.10 | 0.00 | 95 | 1011.6 |
| 20260509124230 | 54 | 135 | 0.0 | 0.0 | 0.00 | 0.10 | 0.00 | 95 | 1011.7 |
| 20260509123709 | 54 | 135 | 0.0 | 0.0 | 0.00 | 0.10 | 0.00 | 95 | 1011.7 |
| 20260509122232 | 53 | 84 | 0.0 | 0.0 | 0.00 | 0.10 | 0.00 | 95 | 1011.6 |
| 20260509121231 | 53 | 84 | 0.0 | 0.0 | 0.00 | 0.10 | 0.00 | 95 | 1011.4 |
| 20260509120228 | 53 | 84 | 0.0 | 0.0 | 0.00 | 0.10 | 0.00 | 95 | 1011.3 |
| 20260509115227 | 53 | 84 | 0.0 | 0.0 | 0.00 | 0.10 | 0.00 | 95 | 1011.2 |
| 20260509114222 | 52 | 84 | 0.0 | 0.0 | 0.00 | 0.10 | 0.00 | 95 | 1011.3 |
| 20260509113220 | 52 | 84 | 0.0 | 0.0 | 0.00 | 0.10 | 0.00 | 95 | 1011.1 |
| 20260509112655 | 52 | 84 | 0.0 | 0.0 | 0.00 | 0.10 | 0.00 | 95 | 1011.1 |
| 20260509111217 | 52 | 84 | 0.0 | 0.0 | 0.00 | 0.10 | 0.00 | 95 | 1010.9 |
| 20260509110218 | 52 | 129 | 0.0 | 0.0 | 0.00 | 0.10 | 0.00 | 95 | 1010.8 |
| 20260509105217 | 52 | 129 | 0.0 | 0.0 | 0.00 | 0.10 | 0.00 | 95 | 1010.7 |
| 20260509104216 | 52 | 129 | 0.0 | 0.0 | 0.00 | 0.10 | 0.00 | 95 | 1010.7 |
| 20260509103216 | 52 | 129 | 0.0 | 0.0 | 0.00 | 0.10 | 0.00 | 95 | 1010.5 |
| 20260509102217 | 52 | 140 | 0.0 | 0.0 | 0.00 | 0.10 | 0.00 | 95 | 1010.6 |
| 20260509101210 | 52 | 277 | 0.0 | 0.0 | 0.00 | 0.10 | 0.00 | 94 | 1010.6 |
| 20260509100212 | 53 | 209 | 0.0 | 1.7 | 0.00 | 0.10 | 0.00 | 94 | 1010.6 |
| 20260509095211 | 53 | 5 | 0.0 | 0.9 | 0.00 | 0.10 | 0.00 | 95 | 1010.6 |
| 20260509094210 | 53 | 5 | 0.0 | 1.7 | 0.00 | 0.10 | 0.00 | 95 | 1010.7 |
| 20260509093210 | 53 | 5 | 0.0 | 1.7 | 0.00 | 0.10 | 0.00 | 95 | 1010.7 |
| 20260509092210 | 53 | 296 | 0.0 | 0.0 | 0.00 | 0.10 | 0.00 | 94 | 1010.8 |
| 20260509091211 | 53 | 296 | 0.0 | 0.0 | 0.00 | 0.10 | 0.00 | 94 | 1010.8 |
| 20260509090210 | 53 | 296 | 0.0 | 0.0 | 0.00 | 0.10 | 0.00 | 95 | 1010.9 |
| 20260509085645 | 52 | 296 | 0.0 | 0.0 | 0.00 | 0.10 | 0.00 | 94 | 1010.9 |
| 20260509084206 | 53 | 296 | 0.0 | 0.0 | 0.00 | 0.10 | 0.00 | 94 | 1010.9 |
| 20260509083206 | 53 | 296 | 0.0 | 0.0 | 0.00 | 0.10 | 0.00 | 94 | 1011.1 |
| 20260509082204 | 52 | 296 | 0.0 | 0.0 | 0.00 | 0.10 | 0.00 | 94 | 1011.1 |
| 20260509081204 | 53 | 252 | 0.0 | 0.0 | 0.00 | 0.10 | 0.00 | 94 | 1011.2 |
| 20260509080206 | 53 | 252 | 0.0 | 0.0 | 0.00 | 0.10 | 0.00 | 93 | 1011.2 |
| 20260509075205 | 53 | 252 | 0.0 | 0.0 | 0.00 | 0.10 | 0.00 | 93 | 1011.3 |
| 20260509074648 | 54 | 252 | 0.0 | 0.9 | 0.00 | 0.10 | 0.00 | 93 | 1011.3 |
| 20260509073204 | 54 | 293 | 0.0 | 0.9 | 0.00 | 0.10 | 0.00 | 94 | 1011.3 |
| 20260509072204 | 54 | 293 | 0.0 | 1.7 | 0.00 | 0.10 | 0.00 | 93 | 1011.4 |
| 20260509071205 | 54 | 263 | 0.0 | 0.9 | 0.00 | 0.10 | 0.00 | 93 | 1011.3 |
| 20260509070204 | 54 | 263 | 0.0 | 0.0 | 0.00 | 0.10 | 0.00 | 93 | 1011.1 |
| 20260509064201 | 55 | 263 | 0.0 | 0.0 | 0.00 | 0.10 | 0.00 | 92 | 1011.3 |
| 20260509063650 | 55 | 320 | 0.0 | 0.9 | 0.00 | 0.10 | 0.00 | 93 | 1011.3 |
| 20260509062202 | 55 | 320 | 0.0 | 1.7 | 0.00 | 0.10 | 0.00 | 91 | 1011.4 |
| 20260509061202 | 55 | 289 | 0.0 | 0.0 | 0.00 | 0.10 | 0.00 | 92 | 1011.3 |
| 20260509060203 | 55 | 289 | 0.0 | 0.0 | 0.00 | 0.10 | 0.00 | 92 | 1011.3 |
| 20260509055201 | 56 | 289 | 0.0 | 0.9 | 0.00 | 0.10 | 0.00 | 91 | 1011.5 |
| 20260509054201 | 56 | 309 | 0.0 | 1.7 | 0.00 | 0.10 | 0.00 | 90 | 1011.6 |
| 20260509053200 | 57 | 309 | 0.9 | 2.6 | 0.00 | 0.10 | 0.00 | 90 | 1011.6 |
| 20260509052200 | 57 | 335 | 2.6 | 4.3 | 0.00 | 0.10 | 0.00 | 90 | 1011.5 |
| 20260509051632 | 57 | 311 | 2.6 | 6.1 | 0.00 | 0.10 | 0.00 | 90 | 1011.5 |
| 20260509050644 | 57 | 327 | 3.5 | 6.1 | 0.00 | 0.10 | 0.00 | 90 | 1011.7 |
| 20260509045154 | 57 | 331 | 5.2 | 7.0 | 0.00 | 0.10 | 0.10 | 89 | 1011.5 |
| 20260509044153 | 58 | 321 | 2.6 | 5.2 | 0.00 | 0.10 | 0.10 | 87 | 1011.3 |
| 20260509043152 | 59 | 204 | 2.6 | 5.2 | 0.00 | 0.10 | 0.10 | 86 | 1010.9 |
| 20260509042153 | 58 | 217 | 1.7 | 4.3 | 0.00 | 0.10 | 0.10 | 88 | 1010.9 |
| 20260509041639 | 58 | 203 | 1.7 | 4.3 | 0.00 | 0.10 | 0.10 | 86 | 1010.8 |
| 20260509040639 | 59 | 261 | 1.7 | 3.5 | 0.00 | 0.10 | 0.10 | 85 | 1010.6 |
| 20260509035636 | 59 | 198 | 1.7 | 3.5 | 0.00 | 0.10 | 0.10 | 85 | 1010.6 |
| 20260509034150 | 60 | 223 | 2.6 | 4.3 | 0.00 | 0.10 | 0.10 | 83 | 1010.3 |
| 20260509033631 | 61 | 229 | 1.7 | 4.3 | 0.00 | 0.10 | 0.10 | 81 | 1010.0 |
| 20260509032146 | 61 | 219 | 3.5 | 7.0 | 0.00 | 0.10 | 0.10 | 81 | 1009.9 |
| 20260509031145 | 61 | 184 | 6.1 | 11.3 | 0.00 | 0.10 | 0.10 | 82 | 1009.7 |
| 20260509030629 | 62 | 169 | 7.8 | 13.9 | 0.00 | 0.10 | 0.10 | 82 | 1009.5 |
| 20260509025148 | 62 | 177 | 8.7 | 14.8 | 0.00 | 0.10 | 0.10 | 83 | 1009.4 |
| 20260509024147 | 62 | 173 | 8.7 | 13.9 | 0.03 | 0.10 | 0.10 | 83 | 1009.1 |
| 20260509023144 | 62 | 170 | 7.8 | 14.8 | 0.05 | 0.10 | 0.10 | 84 | 1009.1 |
| 20260509022144 | 63 | 163 | 11.3 | 19.1 | 0.08 | 0.10 | 0.10 | 83 | 1009.0 |
| 20260509021144 | 62 | 188 | 11.3 | 22.6 | 0.08 | 0.10 | 0.10 | 86 | 1008.6 |
| 20260509020145 | 62 | 179 | 13.9 | 22.6 | 0.09 | 0.10 | 0.10 | 82 | 1009.6 |
| 20260509015143 | 62 | 184 | 8.7 | 18.2 | 0.09 | 0.10 | 0.09 | 83 | 1009.5 |
| 20260509014146 | 63 | 205 | 1.7 | 5.2 | 0.07 | 0.07 | 0.07 | 87 | 1011.9 |
| 20260509013139 | 64 | 231 | 0.9 | 3.5 | 0.04 | 0.04 | 0.04 | 84 | 1011.9 |
| 20260509012625 | 64 | 267 | 1.7 | 3.5 | 0.02 | 0.02 | 0.02 | 80 | 1011.3 |
| 20260509011629 | 64 | 322 | 1.7 | 2.6 | 0.02 | 0.02 | 0.01 | 82 | 1010.7 |
| 20260509010140 | 66 | 300 | 1.7 | 2.6 | 0.01 | 0.01 | 0.01 | 77 | 1010.4 |
| 20260509005141 | 67 | 340 | 3.5 | 8.7 | 0.01 | 0.01 | 0.01 | 71 | 1010.4 |
| 20260509004142 | 69 | 325 | 4.3 | 7.0 | 0.00 | 0.00 | 0.00 | 67 | 1010.7 |
| 20260509002139 | 69 | 304 | 1.7 | 2.6 | 0.00 | 0.00 | 0.00 | 63 | 1009.7 |
| 20260509001139 | 70 | 301 | 0.9 | 2.6 | 0.00 | 0.00 | 0.00 | 64 | 1009.3 |
| 20260509000134 | 71 | 248 | 0.0 | 0.9 | 0.00 | 0.00 | 0.00 | 59 | 1009.0 |
| 20260508235131 | 72 | 162 | 0.0 | 0.9 | 0.00 | 0.00 | 0.00 | 60 | 1009.0 |
| 20260508234131 | 72 | 296 | 0.9 | 1.7 | 0.00 | 0.00 | 0.00 | 56 | 1009.2 |
| 20260508233614 | 73 | 284 | 0.9 | 5.2 | 0.00 | 0.00 | 0.00 | 53 | 1009.1 |
| 20260508232128 | 74 | 274 | 2.6 | 6.1 | 0.00 | 0.00 | 0.00 | 51 | 1009.2 |
| 20260508231126 | 75 | 301 | 1.7 | 5.2 | 0.00 | 0.00 | 0.00 | 49 | 1008.9 |
| 20260508230125 | 75 | 225 | 1.7 | 6.1 | 0.00 | 0.00 | 0.00 | 48 | 1008.8 |
| 20260508225124 | 75 | 209 | 2.6 | 8.7 | 0.00 | 0.00 | 0.00 | 48 | 1009.0 |
| 20260508224610 | 75 | 207 | 4.3 | 8.7 | 0.00 | 0.00 | 0.00 | 49 | 1008.9 |
| 20260508223119 | 75 | 180 | 4.3 | 8.7 | 0.00 | 0.00 | 0.00 | 48 | 1008.7 |
| 20260508222121 | 76 | 230 | 5.2 | 9.6 | 0.00 | 0.00 | 0.00 | 47 | 1008.7 |
| 20260508221117 | 76 | 194 | 7.0 | 12.2 | 0.00 | 0.00 | 0.00 | 48 | 1008.9 |
| 20260508220117 | 76 | 211 | 5.2 | 10.4 | 0.00 | 0.00 | 0.00 | 48 | 1008.9 |
| 20260508215115 | 76 | 205 | 4.3 | 8.7 | 0.00 | 0.00 | 0.00 | 47 | 1009.0 |
| 20260508214116 | 76 | 192 | 6.1 | 11.3 | 0.00 | 0.00 | 0.00 | 50 | 1009.0 |
| 20260508213115 | 76 | 175 | 7.8 | 13.9 | 0.00 | 0.00 | 0.00 | 49 | 1009.2 |